Weather Roundup
Issued by NWS Chicago, IL

Home | Current Version | Previous Version | Text Only | Print | Product List | Glossary Off
Versions: 1 2 3 4 5 6 7 8 9 10 11 12 13 14 15 16 17 18 19 20 21 22 23 24 25 26 27 28 29 30 31 32 33 34 35 36 37 38 39 40 41 42 43 44 45 46 47 48 49 50

000
NZUS59 KLOT 020321
HRRLOT

CHICAGO AREA WEATHER ROUNDUP
NATIONAL WEATHER SERVICE CHICAGO/ROMEOVILLE IL
1000 PM CDT SAT AUG 01 2015

NOTE: "FAIR" INDICATES FEW OR NO CLOUDS BELOW 12,000 FEET WITH NO
SIGNIFICANT WEATHER AND/OR OBSTRUCTIONS TO VISIBILITY.

* THESE STATIONS ARE NOT UNDER NWS QUALITY CONTROL. THEY ALSO MAY NOT
  REPORT WEATHER SUCH AS PRECIPITATION OR FOG.

ILZ005-006-012>014-019>023-020400-
NORTHEAST ILLINOIS

CITY           SKY/WX    TMP DP  RH WIND       PRES   REMARKS
OHARE          PTCLDY    77  63  61 SW8       29.90S
MIDWAY         MOCLDY    79  62  56 SW8       29.91R HX  80
AURORA         MOCLDY    74  64  71 SW7       29.92S
LANSING*       MOCLDY    74  62  66 SW7       29.92S
JOLIET*        MOCLDY    77  66  68 SW5       29.93R
WAUKEGAN       CLEAR     76  65  68 SW3       29.88S
DUPAGE AIRPORT PTCLDY    74  65  73 SW9       29.91S
WHEELING       PTCLDY    79  62  56 W7        29.90S HX  80
KANKAKEE*      PTCLDY    71  67  89 CALM      29.95R
MORRIS*        MOCLDY    73  65  78 SW6       29.92S
LEWIS AIRPORT* MOCLDY    75  63  64 SW7       29.92S
NORTHERLY IS     N/A     80  61  52 W6          N/A  HX  81
$$

WIZ051-052-058>065-066-070>072-020400-
SOUTHEAST WISCONSIN

CITY           SKY/WX    TMP DP  RH WIND       PRES   REMARKS
MILWAUKEE      CLEAR     72  59  63 S5        29.87F
KENOSHA*       CLEAR     67  62  84 CALM      29.89S
RACINE*        CLEAR     72  63  73 S5        29.89S
BURLINGTON     CLEAR     66  60  81 SW3       29.89S
WAUKESHA       CLEAR     70  59  68 SW5       29.89S
WEST BEND      CLEAR     68  59  73 CALM      29.87S
$$

INZ001>003-010>013-019-020-020400-
NORTHWEST INDIANA

CITY           SKY/WX    TMP DP  RH WIND       PRES   REMARKS
GARY*          MOCLDY    77  63  61 W7        29.92
MICHIGAN CITY* NOT AVBL
RENSSELAER*    NOT AVBL
VALPARAISO     MOCLDY    73  62  68 SW8       29.93S
$$

LMZ740>746-020400-
SOUTHERN LAKE MICHIGAN

STATION/POSITION TIME  SKY/WX   TEMP WIND        PRES    VSBY
                                AIR  DIR/SP/G
                 (UTC)          (F)  (DEG/KT/KT) (MB)    (MI)
HARRISON CRIB    0300            80  250/ 16/ 19   N/A
BURNHAM HARBOR   0300            80  240/  3/ 12   N/A
CALUMET HARBOR   0200            80  230/  6/ 11   N/A
BURNS HARBOR     0200            79  230/ 12/ 15 1013.2R
MICHIGAN CITY    0300            77  190/ 13/ 15   N/A
$$

ABBREVIATIONS USED IN REMARKS
   TC - TEMPERATURE IN CELSIUS
  WCI - WIND CHILL INDEX
   HX - HEAT INDEX
  VSB - VISIBILITY
$$


USA.gov is the U.S. government's official web portal to all federal, state and local government web resources and services.